RH
69 76 82 86 86 87 73 65 66 65 71 70 67 50 31 30 28 31 31 28 28 29 33 31 30 30 32 33 38 47 49 55 58 53 39 18 13 19 26 32 32 33 35 40 46 49 49 48 50 52 53 52 49 45 41 41 46 52 55 63 66 67 66 64 69 63 57 58 53 51 42 33 36 43 48 43 39 41 42 40 53 65 58 60 63 70 71 62 61 55 42 35 39 41 41 40 43
71 75 83 89 90 93 83 71 64 69 78 64 54 49 39 39 44 43 35 30 31 29 26 29 31 28 24 27 36 38 34 41 45 34 24 17 12 13 16 21 23 26 31 32 36 41 38 39 49 55 53 50 44 39 38 38 39 44 48 58 65 66 63 61 67 61 57 67 66 59 48 41 43 44 44 40 42 48 47 44 54 63 58 63 66 63 64 63 64 60 50 47 47 47 45 41 44
71 73 81 86 87 88 82 79 76 81 83 68 56 50 50 54 57 43 30 34 35 31 28 29 35 41 38 38 48 42 28 26 29 22 20 20 16 14 15 19 19 24 31 29 32 38 33 36 45 46 45 42 38 36 33 31 30 37 45 55 62 57 55 54 58 59 61 72 74 70 55 44 48 46 42 39 45 54 57 55 56 62 60 63 66 62 63 62 60 58 55 56 53 48 45 39 43
71 73 83 79 80 81 79 80 77 85 81 71 60 50 52 49 48 34 25 36 36 37 35 31 35 46 51 47 48 41 30 25 27 24 21 22 19 15 14 17 17 25 33 25 23 33 38 42 43 41 37 31 33 37 32 30 32 41 51 57 63 56 52 53 56 59 64 74 73 71 63 53 53 50 46 45 48 56 65 67 63 62 59 63 67 65 64 59 54 55 56 55 53 48 42 38 40
72 75 85 78 79 78 79 82 75 79 72 67 58 48 46 31 33 28 25 35 33 36 38 40 35 35 47 49 48 42 35 30 30 28 24 22 19 14 13 13 12 21 29 21 14 22 35 36 32 34 35 30 31 35 33 37 40 46 54 56 58 57 58 60 66 67 65 74 72 68 68 68 66 58 50 51 54 60 68 73 72 70 68 69 72 68 62 59 57 60 60 52 48 45 40 38 36
69 73 85 83 82 74 80 90 87 76 58 64 59 43 39 26 27 23 21 31 32 34 40 50 42 37 43 37 41 43 40 36 32 29 25 22 18 15 12 11 10 12 16 18 19 21 28 28 25 28 33 34 34 36 38 43 46 51 56 60 60 60 64 69 72 73 74 80 79 75 76 78 75 65 54 54 60 65 75 80 77 77 76 73 75 71 61 60 63 66 63 52 42 41 38 34 28
66 73 83 82 78 74 83 88 88 72 52 62 57 39 34 26 27 25 26 31 33 37 45 53 46 46 44 35 39 40 39 35 31 29 25 22 17 14 12 10 11 11 13 21 29 30 32 34 34 34 34 37 39 42 47 51 53 58 63 68 70 71 76 81 80 75 81 88 86 86 88 84 78 71 63 63 69 75 82 82 78 81 79 73 75 72 61 58 64 64 59 50 41 39 36 29 23
63 77 83 79 81 83 86 83 82 66 50 52 48 37 28 24 26 25 33 39 35 38 51 57 54 53 50 48 44 37 35 30 29 28 24 21 15 13 12 12 14 14 21 31 35 37 40 41 41 40 41 43 46 49 55 57 57 61 67 71 74 82 85 85 87 81 84 87 85 88 92 86 79 78 74 76 82 84 85 81 81 83 78 75 73 68 62 57 58 57 50 46 42 40 37 30 23
67 83 87 82 89 92 88 83 74 58 47 40 34 28 23 24 23 22 30 36 35 41 55 61 63 57 53 52 41 33 30 27 28 26 24 19 14 14 14 16 19 19 32 45 46 45 45 47 48 48 50 51 51 53 59 58 58 64 68 74 77 84 86 82 88 88 85 83 82 83 84 83 79 80 81 84 88 87 84 81 84 82 76 76 71 66 63 57 53 51 46 44 44 41 37 31 25
64 78 89 87 91 93 89 75 61 57 50 35 24 18 21 25 28 36 33 29 41 52 53 56 64 56 53 51 35 29 26 25 27 24 22 17 15 16 17 22 28 31 40 54 60 58 53 52 50 48 49 49 48 50 57 56 58 67 71 79 82 85 89 82 83 87 82 78 80 79 80 80 79 80 82 84 87 87 84 82 83 80 73 70 66 60 57 53 52 50 44 44 43 39 35 30 25
54 68 85 89 91 90 85 68 53 50 43 34 24 14 20 26 31 40 32 33 49 59 54 52 62 56 53 49 30 24 24 24 24 22 20 17 17 18 24 30 37 40 41 51 58 61 60 54 48 47 45 42 45 48 53 55 57 65 69 74 78 82 86 82 80 79 77 78 78 78 81 80 77 78 79 79 82 84 83 81 79 70 60 54 50 51 54 53 54 50 44 45 44 39 34 28 22
56 69 87 88 88 88 83 72 55 38 34 37 28 14 19 28 32 30 26 36 48 60 61 50 56 59 56 46 28 23 23 22 20 20 18 17 21 25 32 36 41 38 44 60 58 58 62 55 48 45 43 38 44 50 52 57 57 59 60 63 71 74 76 79 79 76 77 81 78 76 79 77 75 78 76 73 74 76 75 74 66 53 44 40 35 44 55 55 54 50 45 45 41 35 28 21 16
58 75 92 90 90 90 81 67 51 44 49 47 28 14 20 29 30 26 25 33 43 58 61 52 58 63 52 36 30 30 24 19 19 18 17 21 26 32 37 38 42 38 48 71 68 62 60 56 52 42 40 40 45 52 55 58 57 55 53 54 63 67 67 71 72 75 80 82 81 79 78 76 75 77 74 70 70 68 65 61 55 48 42 37 33 39 51 53 52 48 44 41 32 24 17 12 10
55 75 87 88 91 91 81 66 56 61 64 49 29 16 22 28 23 20 23 30 41 55 59 54 58 57 40 29 31 30 21 18 19 20 20 25 30 36 40 41 45 42 45 64 68 65 62 61 59 47 44 45 47 55 57 58 55 52 54 55 60 63 64 65 66 74 81 81 83 81 77 77 73 70 69 71 71 64 58 53 48 44 39 35 33 35 42 46 44 38 33 27 19 13 9 8 8
48 71 84 86 89 87 84 81 75 74 65 52 39 23 19 19 15 15 22 31 37 49 59 54 57 55 39 37 36 24 20 21 23 25 26 30 36 41 46 48 48 42 39 54 63 56 52 53 52 48 50 55 54 55 59 60 56 52 56 59 57 60 62 64 66 73 77 77 76 74 74 73 67 65 67 70 68 59 51 45 38 34 31 30 31 32 36 36 31 24 18 13 10 8 7 9 10
49 67 83 88 83 80 86 89 81 77 70 58 44 25 14 10 10 14 23 35 33 40 57 56 57 55 43 44 39 24 23 26 27 29 32 36 44 48 51 50 44 40 37 46 56 50 42 39 43 45 51 64 61 58 64 61 56 53 56 59 55 57 62 66 68 68 67 67 67 69 70 67 63 65 67 65 59 49 38 32 30 28 27 27 27 28 29 25 18 13 9 7 7 7 9 10 12
49 60 76 89 84 78 88 88 77 78 73 52 38 25 15 12 12 12 19 32 33 38 58 55 46 49 50 46 34 26 26 28 30 33 38 43 49 50 49 45 40 40 37 33 39 41 36 36 45 46 47 60 61 60 65 61 55 52 54 56 53 55 59 63 67 62 58 58 61 65 65 63 64 65 64 57 43 34 28 26 25 24 24 23 21 20 18 13 9 7 7 7 8 10 11 12 13
48 61 72 82 83 83 88 88 83 82 72 46 34 29 21 19 15 12 15 26 32 41 59 58 50 55 50 35 27 27 27 28 33 38 44 49 50 47 43 42 40 38 35 29 29 30 31 36 42 43 43 53 66 66 59 56 54 51 55 51 46 54 58 56 59 56 55 58 60 63 62 60 64 61 51 40 29 25 25 24 23 21 19 16 12 10 9 7 6 6 7 8 11 12 13 14 15
52 69 78 76 77 85 87 88 87 79 72 53 37 30 25 23 16 14 17 22 33 40 53 59 54 50 34 22 24 25 27 32 38 45 49 50 48 44 41 40 38 35 32 29 27 26 27 32 36 38 37 44 67 72 52 49 51 48 50 45 41 52 56 51 52 55 59 64 61 58 62 61 58 47 33 25 23 23 22 21 19 15 12 10 7 5 6 6 6 8 10 12 14 15 16 18 18
49 66 81 79 70 77 82 84 84 75 70 56 39 31 26 23 17 17 17 21 38 45 49 56 51 42 27 20 23 23 30 36 43 50 52 51 46 43 41 36 33 32 32 30 26 24 23 27 33 35 35 33 47 59 47 40 47 48 45 41 42 47 51 50 50 58 61 62 58 56 60 55 41 28 22 21 21 20 18 15 10 8 7 6 5 6 8 9 12 14 16 17 17 19 19 18 20
43 59 74 76 61 64 75 81 81 75 71 57 39 33 26 22 19 21 20 26 47 52 50 56 55 45 28 22 26 29 34 39 46 52 51 49 46 43 38 32 30 30 31 30 24 21 20 23 31 33 33 28 31 42 39 33 40 46 43 40 44 45 49 50 50 57 56 57 58 54 48 34 24 20 19 18 16 13 10 11 10 7 6 8 10 12 14 16 18 20 21 20 19 20 18 16 17
39 58 69 68 57 58 72 83 81 71 71 60 39 33 26 18 20 21 25 41 56 53 50 55 54 45 30 28 33 35 37 41 48 52 50 48 46 41 34 29 29 30 30 28 23 19 18 19 28 33 29 29 32 32 29 32 35 35 35 36 40 44 48 51 53 54 52 52 48 38 28 20 18 15 14 12 10 18 24 27 24 12 11 19 21 18 19 21 21 22 20 18 18 16 15 15 14
41 59 60 51 46 49 65 81 80 71 73 66 44 34 24 20 25 21 30 51 55 46 46 50 48 40 32 31 36 38 39 42 47 50 49 48 46 40 33 31 30 31 28 25 21 18 18 17 21 28 28 30 32 25 24 30 33 31 29 31 39 46 50 51 50 47 42 40 30 21 17 16 15 10 10 7 7 27 39 43 39 24 23 26 23 20 19 22 20 20 18 15 14 12 14 15 15
37 56 53 41 36 38 55 71 78 78 77 69 52 37 26 33 34 21 34 50 43 38 43 45 45 41 35 35 38 42 41 40 46 48 48 48 46 39 32 31 32 31 25 20 19 17 17 17 17 21 24 24 23 22 24 26 32 34 29 31 42 48 49 45 39 34 29 25 19 15 13 11 10 6 9 7 9 25 29 38 42 28 25 22 20 22 20 22 20 17 14 11 11 10 13 13 14
33 54 52 44 38 36 51 62 71 80 79 72 58 42 36 51 49 27 33 43 36 40 45 42 44 46 41 41 42 43 42 41 47 48 48 49 45 38 31 30 30 27 22 16 16 16 15 16 18 17 16 17 18 21 22 22 26 27 24 29 38 42 39 33 27 24 22 19 15 12 10 8 7 6 8 7 17 29 27 36 36 21 20 19 19 23 22 21 17 13 11 10 11 11 17 21 18
45 53 50 50 42 45 60 57 64 80 83 77 62 47 45 57 59 40 30 34 39 47 48 39 44 50 44 44 46 44 42 41 49 51 48 49 45 37 30 29 28 24 20 14 12 14 16 17 14 12 11 14 17 18 19 18 19 19 20 25 30 31 28 24 22 22 20 16 12 9 8 7 6 7 9 10 19 27 25 28 23 17 20 19 20 23 22 21 15 13 12 12 13 13 19 24 19
55 52 46 46 36 51 72 65 74 86 78 76 66 53 49 43 42 43 30 27 39 46 47 41 41 47 43 45 47 44 43 43 50 53 49 48 44 36 30 30 28 23 17 12 11 12 16 18 12 9 8 10 12 13 14 15 16 16 17 18 22 23 21 20 20 20 18 13 10 7 6 6 7 9 12 14 17 19 18 19 18 19 21 19 22 23 21 20 16 13 14 14 15 15 17 17 16
57 56 48 46 34 51 81 80 80 77 67 74 71 60 56 42 38 50 35 19 35 45 45 45 43 43 42 45 46 45 42 44 52 53 49 47 41 34 30 31 29 24 17 10 10 11 15 17 11 7 6 7 9 10 11 13 14 15 16 16 17 18 19 19 18 17 14 10 7 5 6 8 11 13 13 14 15 15 17 18 19 21 21 21 23 23 21 18 14 11 11 11 12 14 15 14 15
53 51 46 47 37 43 74 87 79 67 63 71 71 67 66 50 46 58 41 17 29 42 42 48 50 44 44 43 42 46 43 44 53 51 46 42 36 31 28 30 29 25 17 8 8 10 13 16 11 5 4 6 7 8 9 10 12 14 15 16 16 17 17 16 14 12 9 6 5 5 9 12 14 15 13 15 17 16 16 18 19 20 21 21 21 21 17 14 12 13 11 13 20 17 13 17 18
46 40 39 42 43 44 56 78 82 69 64 68 72 78 77 62 54 59 49 26 23 33 40 50 53 46 48 42 35 43 45 44 50 47 41 35 29 25 24 26 25 23 16 8 7 9 11 15 12 6 4 5 6 7 7 7 9 10 11 13 13 14 13 12 9 7 5 4 5 8 13 15 16 15 14 18 21 18 16 17 18 19 20 21 21 19 15 12 11 17 17 18 30 22 13 23 27
44 41 39 40 52 54 47 62 81 78 69 70 77 83 82 75 65 57 48 34 25 31 40 46 51 51 52 45 34 37 44 45 46 42 35 30 25 21 19 20 20 18 13 8 7 7 9 13 14 9 5 5 5 6 6 7 7 7 8 7 8 8 7 7 5 4 4 4 7 11 16 17 17 17 15 17 20 19 19 19 18 19 22 21 20 19 15 12 10 19 26 24 29 22 17 28 30
50 48 51 54 59 59 50 52 66 74 72 71 74 79 84 83 74 61 49 42 36 39 48 46 48 53 50 49 42 33 37 44 43 37 31 27 22 18 17 17 16 14 10 7 6 6 7 10 13 11 6 5 5 6 6 7 7 7 7 6 5 5 5 5 4 5 5 5 9 13 17 18 19 19 17 18 20 22 22 20 18 19 22 22 20 18 13 11 11 17 25 26 27 24 22 26 26
53 54 62 66 64 63 59 53 55 63 69 72 73 74 82 86 80 70 56 44 37 41 53 50 46 49 44 46 48 37 35 40 40 36 29 24 20 17 17 16 14 12 8 6 5 6 6 7 10 10 8 6 5 6 6 6 7 7 8 7 6 6 6 6 6 6 7 8 9 14 18 18 20 20 19 20 24 25 22 19 18 18 21 22 21 18 13 11 12 14 18 16 21 36 37 25 23
54 58 59 58 67 72 66 63 61 60 66 72 77 74 78 86 84 79 67 48 36 41 54 52 44 45 41 42 49 44 37 35 38 37 29 22 18 16 17 16 14 10 7 6 5 6 6 6 7 7 7 6 4 5 5 5 7 7 8 8 8 7 7 7 7 6 13 18 14 14 19 18 20 20 19 21 26 26 21 19 18 16 19 22 21 19 16 12 11 13 17 14 18 37 41 28 29
54 57 55 46 61 74 69 69 66 64 69 72 80 79 74 79 83 86 81 58 37 40 59 55 45 47 43 42 49 46 39 37 37 36 30 22 17 15 16 16 14 11 8 6 6 6 6 5 5 6 5 5 5 4 4 4 5 6 8 9 9 9 8 8 9 6 12 22 20 15 19 20 20 20 18 21 26 24 20 19 17 16 19 21 21 20 18 15 12 11 16 17 18 24 24 21 31
59 63 62 46 53 67 66 67 65 63 62 58 65 73 72 74 80 86 88 78 45 32 60 60 45 51 45 41 50 45 42 43 35 31 32 24 17 16 15 16 15 12 8 7 7 6 6 6 4 5 5 5 5 4 5 5 4 5 6 9 11 11 11 10 11 9 11 19 19 16 20 22 21 20 19 20 23 22 20 20 17 17 19 20 21 21 20 19 16 11 12 15 16 21 19 15 24
65 70 66 48 51 69 71 67 63 54 48 49 49 58 71 69 71 79 86 96 65 33 62 72 49 51 45 41 53 49 41 38 30 28 31 25 18 16 15 15 15 12 10 8 7 7 6 7 5 5 5 5 5 5 5 4 4 5 6 10 12 13 14 13 13 12 13 16 17 18 20 21 21 21 20 20 21 21 20 20 19 18 19 21 21 22 23 23 22 16 16 15 15 25 25 22 28
58 67 69 60 63 75 75 69 65 51 43 52 48 46 67 65 60 74 81 96 84 47 60 73 53 50 49 45 55 57 44 36 37 33 26 23 20 18 16 15 14 12 11 9 7 8 7 7 6 5 5 5 4 4 4 4 5 7 9 11 13 14 15 15 15 14 14 15 17 19 19 19 21 21 22 22 21 21 22 21 21 21 22 24 23 25 26 25 26 22 20 19 16 24 31 35 36
47 56 64 66 68 73 74 67 61 53 42 50 53 45 57 57 46 62 75 89 89 58 55 74 66 55 54 53 57 62 51 39 39 29 19 21 20 17 16 13 14 13 10 10 8 8 8 7 7 6 5 5 5 5 4 4 6 8 11 12 13 15 16 16 16 16 16 15 16 18 18 18 19 20 21 21 21 21 23 22 22 23 25 27 26 26 27 26 26 24 22 21 19 22 31 39 33
42 46 50 65 73 66 66 65 58 54 45 44 57 55 51 47 35 45 67 83 86 62 56 82 83 61 55 59 59 60 55 40 31 24 17 18 18 16 15 13 13 14 11 10 8 8 8 7 7 7 6 5 5 6 5 5 7 10 13 14 14 15 16 18 17 17 18 17 18 19 19 19 19 20 20 21 24 23 23 24 24 26 27 29 28 25 27 30 30 27 25 25 30 33 39 48 39
37 42 41 57 73 60 50 64 69 61 52 42 44 52 50 44 33 37 55 72 85 74 61 77 84 64 55 59 55 52 54 40 23 22 21 16 17 17 14 13 13 13 12 10 8 8 8 7 8 7 7 6 6 6 6 6 7 10 14 15 15 16 16 17 17 17 18 18 19 19 20 22 21 22 22 23 28 27 24 25 26 27 29 30 29 25 25 27 28 32 32 30 35 41 45 50 44
27 46 50 45 56 55 36 51 71 62 61 57 41 41 45 41 35 37 48 62 82 85 68 69 78 69 61 59 53 46 49 42 22 21 23 15 16 17 14 12 12 12 12 10 8 8 8 8 8 8 7 7 6 6 6 7 7 9 13 15 16 16 15 16 16 16 16 17 20 20 19 21 22 23 24 24 27 26 25 26 26 27 28 29 27 23 22 21 21 28 33 33 34 40 43 42 39
17 48 73 67 59 54 29 29 52 52 61 69 50 44 47 43 44 44 44 53 76 87 72 63 70 76 72 62 51 43 43 43 32 26 23 17 15 16 15 11 9 11 11 9 9 7 8 9 8 9 9 7 7 6 6 7 7 9 12 15 16 15 15 15 15 16 14 17 22 21 17 19 21 22 23 23 24 24 25 25 25 25 25 27 27 22 21 22 21 22 24 27 29 32 35 33 34
25 43 59 64 49 37 24 20 28 33 55 70 61 62 60 53 60 61 52 51 67 86 80 65 65 74 73 58 46 40 39 43 44 36 23 18 18 15 13 10 8 11 11 9 9 7 8 9 9 11 11 9 8 6 7 7 7 9 11 14 15 15 15 15 15 16 15 15 18 17 14 16 18 20 21 21 21 21 22 23 23 24 23 23 24 20 18 19 22 21 20 23 26 27 28 29 31
31 40 28 30 29 22 21 23 27 31 51 68 66 68 65 56 63 66 60 54 60 82 91 78 66 65 64 57 47 39 40 44 48 48 30 15 19 17 11 10 9 11 12 9 8 8 8 8 10 13 13 11 8 6 6 7 7 8 10 13 14 14 15 15 15 16 16 16 16 15 14 15 15 16 17 18 19 18 19 20 19 20 21 21 22 21 17 16 19 20 19 21 23 24 25 26 29
23 25 11 16 28 31 26 30 52 61 58 63 67 66 60 56 59 59 56 54 59 81 97 87 66 59 64 65 52 40 42 42 43 54 45 19 15 18 13 11 9 10 14 11 7 7 8 9 11 13 14 9 6 7 6 6 7 7 9 11 13 15 15 16 16 16 17 17 17 17 17 17 16 16 16 16 17 17 16 18 17 17 20 21 22 22 18 16 19 21 19 19 20 21 23 25 29
15 15 10 10 18 28 32 46 77 81 57 52 63 66 64 62 61 58 55 51 55 73 92 92 71 64 72 63 43 37 42 44 42 51 55 34 15 16 16 12 10 10 12 12 8 7 8 9 11 13 14 9 5 6 6 6 7 6 8 9 11 14 14 15 16 16 17 17 17 18 18 19 19 18 18 17 16 16 15 16 19 18 18 18 18 19 21 22 27 27 21 19 20 21 24 28 29
15 15 11 13 24 31 33 50 77 76 56 50 57 58 59 61 58 57 60 56 51 58 78 91 82 73 70 52 40 45 44 43 46 50 58 48 21 12 15 11 11 11 9 9 8 9 9 9 12 14 14 11 6 6 7 6 7 7 7 8 9 11 12 14 15 15 16 16 16 17 16 18 18 17 18 18 17 18 16 16 19 18 16 16 16 18 21 22 26 26 22 21 22 22 25 27 28
12 14 9 15 39 48 35 35 55 68 65 59 57 54 45 45 49 53 62 62 51 48 58 79 89 80 60 44 48 58 47 39 45 49 57 54 26 12 14 11 11 12 8 9 9 9 9 8 12 15 15 13 8 6 7 6 7 7 7 8 8 9 10 11 13 13 14 15 15 15 16 16 16 16 17 17 17 18 18 18 19 18 17 17 17 18 19 18 19 21 20 21 22 22 24 24 25
20 20 28 30 40 55 52 43 51 70 75 61 59 64 49 36 42 47 53 56 51 46 46 63 88 85 61 51 56 60 49 38 44 48 54 55 32 16 19 15 13 13 10 11 10 8 9 8 11 16 17 16 12 8 8 7 7 7 6 7 7 7 8 8 10 11 11 12 13 13 14 14 14 15 15 16 16 17 20 21 18 18 19 18 19 19 19 19 19 20 20 20 20 20 21 20 20
36 37 52 45 42 67 82 74 73 80 76 63 65 73 59 42 44 45 47 54 54 47 41 49 75 86 74 69 69 65 55 40 39 45 50 55 44 26 23 17 10 11 11 12 11 9 10 9 10 16 19 20 17 12 9 9 9 9 8 7 6 7 7 7 8 8 8 9 9 10 11 11 12 13 13 14 14 14 18 18 16 18 18 17 17 18 18 18 18 18 19 19 18 17 16 15 16
58 72 71 48 46 75 90 89 89 80 69 69 73 71 63 58 58 53 52 56 55 49 41 40 60 82 85 79 70 66 61 46 38 46 50 53 47 32 24 16 7 9 10 11 12 10 9 9 9 13 19 22 22 15 11 11 12 13 13 11 9 9 9 10 9 9 10 10 9 10 10 10 12 13 13 13 13 13 14 15 15 16 16 15 15 15 15 16 17 18 18 17 15 14 14 14 14
67 86 88 68 63 75 79 83 82 68 64 79 84 72 63 67 68 61 55 53 50 47 41 35 42 64 85 91 80 69 66 54 40 45 53 49 41 30 22 15 7 7 8 9 12 11 9 9 9 11 16 21 23 19 15 12 12 13 14 14 14 13 12 13 13 13 13 12 13 13 13 13 13 13 14 14 14 13 13 15 15 15 15 15 15 15 16 15 16 16 17 18 16 14 13 12 12
48 68 80 70 64 64 58 62 65 61 67 81 86 78 69 74 79 72 64 61 57 49 42 39 36 41 66 93 93 77 72 64 43 39 51 52 41 27 17 15 10 7 8 8 9 11 9 8 8 9 12 15 19 22 20 15 12 12 13 15 16 16 16 16 16 17 17 16 16 16 17 18 17 17 17 17 16 14 15 15 16 16 17 18 16 17 18 16 14 15 14 14 13 11 11 10 9
24 39 57 58 64 70 58 53 60 64 70 76 83 85 77 75 79 76 74 75 70 57 45 40 38 34 43 71 91 89 82 69 45 34 44 50 42 25 14 14 11 8 9 8 8 9 9 10 10 9 10 12 14 18 21 19 16 13 14 17 18 17 20 20 19 19 19 18 18 18 19 21 21 21 20 21 19 18 18 16 15 15 15 16 16 15 16 15 14 14 12 14 16 12 10 10 10
25 15 28 37 48 64 64 67 72 67 70 80 88 92 85 77 76 78 77 72 69 73 63 41 36 39 36 47 75 95 92 70 45 37 44 49 44 28 16 14 12 10 9 8 9 9 8 10 11 12 13 12 11 14 17 19 19 16 15 19 19 19 22 24 23 23 22 20 19 19 20 20 21 21 22 23 21 20 21 19 20 22 22 25 25 21 23 22 18 17 15 17 19 15 13 14 12
53 31 27 30 33 44 58 75 81 71 73 82 86 92 92 84 80 78 73 66 65 79 81 55 37 39 41 42 52 78 96 82 57 46 45 49 49 37 24 16 14 12 9 8 9 8 9 10 11 13 13 12 12 13 13 15 17 16 15 17 18 19 22 25 27 28 27 26 25 24 24 23 22 22 23 26 25 23 23 23 26 31 32 35 33 29 29 27 22 21 19 18 18 15 17 17 14
53 43 33 35 37 36 49 70 75 71 75 76 76 86 88 81 79 72 67 73 68 64 76 74 54 38 44 52 46 56 86 90 71 57 50 50 53 47 33 21 16 13 9 9 9 8 8 9 10 12 11 12 13 12 13 14 15 15 14 14 16 19 23 25 28 30 31 32 31 31 32 31 29 26 25 26 27 25 25 25 29 31 30 31 31 28 27 25 22 22 21 22 22 22 22 22 21
Wind_Speed
11 11 7 7 6 7 9 11 11 10 10 11 8 7 6 7 8 7 7 7 6 6 7 8 7 7 6 6 6 6 6 7 7 8 7 8 9 10 11 11 12 11 11 11 11 11 10 10 10 10 10 10 10 10 8 7 6 6 6 7 6 6 6 7 7 6 6 4 4 3 3 5 6 7 6 7 7 6 7 7 8 9 9 10 11 13 12 7 4 6 8 8 8 8 9 10 12
10 12 7 6 6 6 9 11 11 10 10 9 7 6 6 7 9 7 7 7 5 4 5 7 8 7 6 6 6 6 6 7 7 8 8 8 8 8 9 11 11 10 10 10 10 10 9 9 10 10 10 10 11 10 8 7 7 6 6 7 6 6 6 6 7 7 6 4 3 4 4 5 5 6 6 6 5 5 6 7 8 9 9 10 10 12 14 12 6 4 8 9 9 10 10 11 12
10 12 8 6 7 7 9 12 11 11 9 7 7 6 6 8 8 8 8 8 5 5 5 6 7 8 7 6 6 6 7 7 8 8 8 9 9 8 8 10 10 10 9 10 10 9 8 8 9 10 9 9 10 9 8 7 7 6 5 6 5 5 5 5 5 6 6 4 3 5 4 5 5 5 5 5 4 4 4 5 6 8 9 9 8 9 12 14 8 3 6 9 9 11 11 11 13
9 11 8 7 9 8 10 11 11 10 8 6 6 6 7 7 7 7 8 8 6 6 6 5 6 7 7 6 6 6 7 8 8 8 9 9 9 9 8 10 10 10 9 10 10 9 8 7 8 8 8 8 8 8 8 6 6 5 3 4 3 3 4 3 4 5 6 4 5 5 4 5 5 5 5 4 2 2 3 4 4 5 7 7 7 8 9 13 11 4 5 9 10 12 13 12 12
9 9 5 7 8 8 9 10 10 11 7 5 6 6 7 6 6 7 7 8 7 6 7 6 5 5 6 7 6 6 7 8 9 9 9 10 10 9 9 10 10 10 10 10 10 9 7 7 7 8 7 7 7 7 6 5 4 4 3 3 3 2 2 3 4 5 5 5 5 5 4 5 5 5 4 3 3 3 3 4 5 5 6 7 7 6 7 12 13 8 6 9 11 12 14 13 13
9 8 3 6 8 9 9 7 9 11 6 6 6 5 7 7 7 6 6 7 7 8 8 7 5 5 5 6 6 6 6 7 8 9 10 11 11 10 10 10 11 11 10 10 10 9 7 7 7 7 6 5 5 5 4 4 3 3 4 4 4 4 5 5 5 4 4 5 5 4 5 5 5 5 4 3 3 3 3 4 5 5 7 9 8 6 7 11 13 11 7 9 13 14 14 13 13
10 9 3 7 9 9 9 7 10 9 5 7 6 6 7 7 8 7 6 7 7 8 8 7 6 5 5 5 6 5 5 6 8 10 10 11 12 12 11 11 11 10 10 10 10 10 8 8 7 6 4 3 3 2 2 2 2 3 4 4 5 6 7 5 4 3 3 5 4 3 4 5 5 5 4 3 3 3 4 4 4 5 8 9 9 7 8 13 14 12 9 10 14 15 14 13 13
10 9 4 8 10 9 10 10 11 9 6 7 6 6 7 7 8 7 6 6 7 7 8 7 6 6 5 5 6 4 4 7 9 10 10 11 12 12 12 12 11 11 11 10 10 9 8 7 7 6 5 4 3 2 2 2 3 3 4 3 3 4 4 3 2 3 4 4 3 3 3 3 3 4 3 3 2 3 3 4 5 7 9 9 10 8 10 15 16 13 10 11 14 15 15 14 12
9 7 5 9 11 10 11 11 10 9 7 6 6 7 7 8 8 7 5 5 7 7 8 6 5 6 5 5 6 5 5 7 9 10 10 10 11 12 12 12 11 10 10 10 9 8 7 5 5 5 5 5 4 4 4 3 3 3 2 1 2 3 3 3 3 3 4 4 4 4 3 2 3 4 4 5 5 5 5 6 8 9 9 10 12 12 13 16 17 13 11 12 14 15 15 14 12
8 6 5 10 11 10 11 10 8 8 7 5 6 7 7 7 7 7 5 5 7 8 7 7 6 5 5 5 6 7 8 9 11 10 10 10 10 10 10 11 10 10 10 10 8 7 7 4 3 3 3 4 4 3 4 3 2 1 1 1 2 2 2 3 3 3 3 3 5 6 6 5 6 7 8 10 10 10 9 10 10 10 11 13 15 15 15 15 16 14 13 14 15 15 15 13 11
7 6 5 8 8 9 10 10 8 7 7 6 6 7 7 7 7 6 6 6 8 8 7 7 6 6 5 4 6 8 10 11 12 11 10 10 9 9 10 10 9 8 8 9 9 7 6 5 3 2 2 3 3 3 4 3 2 1 1 2 2 2 3 3 4 4 4 4 5 7 8 8 9 10 12 13 14 14 12 12 11 12 15 17 17 17 16 15 14 14 15 16 15 15 14 13 12
7 5 5 6 7 9 11 10 8 7 7 7 6 7 7 8 7 6 6 7 8 8 7 6 6 6 6 5 6 9 11 12 13 12 11 10 9 8 9 9 8 7 6 9 10 6 4 5 4 3 3 3 3 3 4 5 4 3 2 1 2 3 4 4 4 5 6 5 6 8 8 9 11 13 14 15 16 16 15 14 13 13 14 16 17 17 17 16 14 15 17 17 16 15 14 13 13
5 3 4 6 6 9 11 10 8 7 8 7 7 7 8 8 7 7 7 7 9 8 7 7 6 5 6 6 8 10 11 13 14 13 11 10 9 8 8 8 7 6 6 8 9 7 5 5 5 4 4 5 5 5 5 6 5 5 4 3 3 4 4 5 5 6 7 7 8 9 10 11 13 14 15 16 16 16 16 15 14 13 14 15 15 15 16 17 16 17 18 17 17 16 15 14 14
4 3 1 5 6 7 9 9 8 8 7 6 6 7 8 8 8 8 8 8 8 8 8 8 6 5 6 7 8 10 11 12 13 13 11 9 8 7 7 7 6 5 6 7 7 7 6 7 6 5 5 5 6 7 7 7 6 5 5 5 5 5 5 6 7 7 8 9 10 11 12 13 14 14 15 15 16 16 16 16 15 14 14 14 14 13 14 16 17 18 18 18 17 17 16 16 15
4 2 3 5 6 5 6 6 8 8 7 6 6 7 7 7 8 8 8 8 8 8 9 8 7 6 6 7 8 10 11 12 13 13 11 9 8 7 7 6 5 4 6 7 7 5 5 6 5 5 6 6 6 7 7 7 6 5 6 7 7 7 7 8 8 8 9 10 11 12 13 14 14 15 15 15 16 16 16 17 17 16 15 15 14 13 14 15 17 18 19 19 19 18 17 16 16
5 3 4 4 5 4 6 6 7 8 8 7 5 5 6 6 7 7 7 8 8 8 8 8 8 7 6 6 8 10 11 12 13 12 11 9 7 7 7 6 5 4 6 7 7 5 4 6 5 4 5 6 7 8 8 7 6 6 6 7 8 8 8 9 9 10 10 11 11 13 14 15 15 15 16 16 16 15 16 17 17 17 17 17 16 15 15 16 18 19 19 19 19 18 17 16 15
5 3 2 3 2 3 6 7 6 8 9 7 5 3 3 4 5 5 6 7 8 8 8 8 8 8 7 7 8 9 10 12 12 12 10 8 7 7 7 6 5 5 6 6 6 6 6 6 6 5 5 6 8 8 8 7 6 7 7 8 9 8 8 10 10 10 10 11 12 13 14 16 16 16 17 17 16 16 16 17 18 18 19 19 18 17 17 18 18 19 19 18 17 17 16 15 15
5 2 1 1 3 4 4 4 5 9 9 6 5 3 3 4 4 5 5 7 8 7 7 8 9 10 10 9 10 9 9 11 11 11 10 8 7 7 7 6 6 6 6 6 6 7 7 7 6 5 5 7 10 10 8 7 7 7 8 8 8 9 9 10 10 10 11 12 12 13 14 15 16 16 17 17 16 16 17 18 19 19 19 19 19 19 19 19 19 18 18 18 17 16 16 15 14
4 2 0 1 2 3 2 2 4 9 9 6 6 3 3 5 6 6 5 6 7 7 7 9 10 11 11 11 10 10 10 11 11 10 9 8 8 7 7 6 6 6 6 6 6 6 6 6 6 5 5 6 10 13 9 7 7 7 8 8 8 9 9 10 10 11 12 13 13 13 15 16 16 16 16 16 16 17 18 19 19 19 19 19 19 19 19 19 18 18 17 17 16 16 15 15 14
6 3 2 1 2 3 2 3 3 9 9 6 6 4 3 5 7 8 6 6 7 6 7 8 10 11 11 10 10 10 10 10 11 10 9 9 8 7 6 6 5 6 7 6 6 6 6 6 6 5 5 5 8 12 10 7 7 9 9 9 10 9 9 11 11 12 13 14 14 15 15 16 16 16 16 16 17 18 18 19 19 19 18 18 19 18 18 17 17 17 16 16 15 15 15 15 13
7 5 4 3 4 4 3 3 4 9 9 7 7 4 4 5 7 8 8 7 7 7 7 8 10 10 11 10 11 11 10 10 10 10 10 9 8 7 7 6 6 6 7 7 6 5 5 5 6 6 6 5 6 9 10 8 7 9 10 11 11 11 11 13 13 13 15 15 16 16 16 16 17 17 17 18 18 18 19 19 18 18 18 18 17 17 17 17 17 16 16 16 15 15 15 14 14
8 6 6 5 6 7 4 5 7 9 9 9 7 5 5 5 7 8 9 8 8 8 7 7 9 10 10 10 11 10 10 10 10 10 10 9 8 7 7 6 6 7 7 7 6 6 6 5 5 6 6 7 7 7 8 9 9 9 10 11 12 12 13 14 14 15 15 16 17 17 17 17 18 19 19 19 18 18 17 17 17 16 16 16 15 16 18 17 17 17 17 17 16 16 15 15 15
8 6 7 7 9 10 7 6 9 11 11 11 8 6 6 5 6 8 9 9 8 9 8 8 10 10 10 10 10 10 9 10 10 10 9 9 8 8 7 7 7 6 6 6 6 6 6 6 6 7 6 7 7 6 8 9 10 10 11 12 13 13 14 15 16 16 17 17 18 18 18 19 19 20 19 18 17 16 16 15 15 15 14 15 15 16 18 18 18 18 17 17 16 16 16 15 16
9 7 8 8 9 11 9 8 11 12 11 11 10 7 6 6 6 7 8 9 9 10 9 9 10 10 10 9 9 10 9 9 10 10 10 9 8 8 7 7 7 6 6 6 7 7 7 7 7 8 7 7 7 8 9 10 10 12 12 13 14 15 16 17 17 18 18 18 19 19 19 20 19 19 18 17 16 14 15 15 14 14 13 14 15 16 18 18 18 18 17 17 16 16 17 16 16
9 8 9 9 9 11 10 10 11 13 12 10 11 8 7 9 7 6 8 9 10 10 10 11 11 11 10 9 8 9 9 9 10 10 10 9 8 8 7 7 7 5 5 6 8 8 9 9 9 9 9 9 9 9 10 11 11 12 13 14 15 16 17 18 18 18 19 19 19 19 19 19 18 17 17 16 15 14 14 14 13 13 13 14 15 16 17 17 18 18 17 17 16 17 17 17 17
10 9 9 9 10 9 9 11 12 16 13 8 10 9 8 10 9 7 8 9 10 10 11 11 11 11 10 9 8 8 8 9 10 10 9 8 8 7 7 7 7 5 5 6 8 9 10 11 10 10 10 10 10 11 12 12 12 13 13 14 15 16 17 18 18 18 18 19 19 19 18 17 16 16 16 14 14 13 12 13 12 12 13 14 15 16 17 17 17 17 17 16 16 17 17 18 19
12 10 9 10 11 7 8 10 14 17 12 8 12 12 10 9 9 9 8 9 10 10 11 11 11 11 10 9 8 8 8 9 9 9 8 8 7 7 6 7 7 6 5 6 9 10 11 12 12 12 12 12 12 12 13 13 14 14 14 15 15 16 16 17 17 17 18 19 19 19 18 16 15 15 14 13 13 12 12 12 12 12 13 14 15 15 16 16 16 17 17 17 17 17 18 19 19
11 9 8 10 10 7 4 9 16 15 11 9 12 12 10 9 10 10 8 10 11 10 11 12 11 11 11 10 9 8 8 9 9 9 8 7 7 7 6 6 6 6 5 6 9 10 12 12 13 13 13 14 14 14 14 14 15 15 15 15 16 16 16 17 17 18 18 19 18 18 17 16 15 14 13 13 12 12 11 11 11 12 12 13 14 14 14 15 16 17 17 17 17 17 18 18 19
11 8 8 9 11 10 7 11 14 12 11 11 11 12 11 10 10 9 9 10 10 11 12 12 11 11 11 10 9 9 8 9 9 8 8 7 7 6 6 6 6 6 5 6 9 10 11 12 13 14 15 15 15 15 15 15 15 15 15 16 16 16 17 17 18 18 18 18 18 17 16 14 13 13 13 12 11 12 11 11 11 11 12 12 13 13 13 14 15 16 17 17 16 16 17 18 18
12 10 9 9 11 12 11 12 13 13 13 12 11 12 13 12 12 10 9 9 10 11 12 12 12 11 11 10 10 9 9 9 9 9 8 7 7 7 6 6 6 6 6 7 9 10 11 12 13 14 15 16 16 16 16 16 16 16 16 16 16 17 17 18 18 18 18 17 17 15 14 14 13 12 12 11 11 11 11 11 11 11 12 12 12 12 13 13 14 15 15 16 15 15 16 16 16
13 11 10 11 12 13 14 12 13 14 15 15 13 13 14 14 13 11 10 9 10 10 11 12 12 12 11 11 10 10 10 9 9 9 8 7 7 7 6 6 6 6 6 7 8 10 12 12 13 14 15 16 16 16 16 16 16 17 17 17 17 17 18 18 18 18 17 16 16 15 14 13 12 12 12 11 11 11 10 10 11 11 12 12 12 12 12 13 13 13 13 14 15 15 15 14 14
13 11 10 11 13 15 15 14 14 15 16 17 16 15 14 14 14 13 12 11 11 11 11 12 13 12 12 11 11 11 10 10 9 9 8 7 7 7 7 6 6 6 7 7 9 10 12 13 13 14 15 15 16 16 17 16 16 17 17 17 17 17 18 18 18 17 17 16 15 15 14 12 12 12 12 11 11 11 10 10 10 11 12 12 12 11 11 11 12 12 12 12 13 13 13 13 13
13 12 12 12 12 13 14 14 16 18 18 17 17 17 15 15 16 15 14 13 12 13 12 12 13 13 13 12 11 12 11 11 10 9 8 8 7 7 7 6 6 7 7 8 9 10 12 13 13 14 15 15 16 16 16 16 17 17 17 17 17 17 17 17 17 17 17 16 15 14 14 13 12 11 11 10 10 10 10 9 10 10 11 11 10 10 9 10 10 10 11 11 12 11 11 12 12
15 15 16 16 13 13 14 14 15 19 20 18 18 19 17 16 17 16 15 15 14 14 14 13 14 14 14 13 12 12 12 11 10 9 9 8 8 8 7 7 6 7 8 9 10 11 11 13 13 14 14 14 15 15 15 16 16 16 17 17 16 16 16 16 16 16 15 15 15 14 13 12 12 11 11 10 9 10 10 9 9 9 9 9 9 9 8 8 9 9 9 10 11 10 9 10 10
18 18 19 19 17 15 16 15 15 17 19 17 16 18 19 17 16 16 17 16 16 16 15 15 15 15 15 15 13 13 12 11 11 11 10 9 9 8 8 7 7 7 8 9 10 10 11 11 12 13 14 14 14 14 14 15 15 15 16 16 16 15 15 15 15 15 14 14 14 14 12 12 11 11 11 10 9 9 9 9 9 9 8 8 8 8 8 7 7 8 8 8 9 9 9 9 9
20 19 19 21 20 19 17 17 18 17 17 19 18 18 20 18 16 17 18 18 18 18 18 17 15 16 16 15 14 13 13 13 13 13 11 10 10 9 8 7 7 7 8 9 9 10 10 11 11 12 13 13 13 13 13 13 14 14 14 15 15 15 15 14 14 14 13 13 13 13 12 11 11 11 11 10 9 8 8 8 8 8 8 7 7 8 8 7 7 7 7 8 8 9 9 8 8
22 20 20 22 22 20 18 18 20 19 17 18 21 21 20 19 17 17 17 18 20 19 19 19 16 17 17 16 15 14 15 15 14 13 13 12 11 10 9 8 8 8 8 9 9 9 10 10 11 11 12 13 13 13 13 12 12 13 13 14 14 14 14 14 14 14 13 13 13 12 11 11 11 11 10 10 9 8 8 7 7 7 7 7 6 7 7 7 7 7 7 7 7 8 8 8 7
22 21 19 20 22 21 20 20 19 21 19 15 18 22 21 20 19 18 16 15 20 22 22 21 18 18 18 17 16 16 15 15 14 14 14 13 12 11 11 10 9 8 8 9 10 10 10 10 10 11 11 12 13 13 13 12 12 12 12 12 13 14 13 13 13 13 13 13 12 12 12 11 11 10 9 9 8 7 7 6 6 6 6 6 6 6 6 6 7 7 7 7 7 6 6 6 6
23 22 20 18 21 21 20 21 21 21 21 16 15 19 21 21 21 21 17 15 23 26 24 22 20 20 20 18 18 17 16 15 16 16 16 14 13 13 12 11 10 9 9 9 10 11 10 11 10 11 11 12 12 12 12 13 12 11 11 11 11 12 12 12 12 13 13 13 12 12 11 11 10 10 9 8 8 7 6 6 5 5 5 5 5 5 5 5 6 6 6 6 6 6 5 5 4
24 24 22 18 19 23 22 22 23 21 21 20 16 15 19 22 23 23 20 16 22 27 24 23 22 21 21 20 19 18 17 17 16 16 16 15 14 14 13 12 11 11 10 10 11 11 11 11 11 10 11 11 11 11 11 12 12 11 10 10 10 11 11 11 12 12 12 12 11 11 11 10 10 9 8 8 7 7 6 6 5 5 4 4 4 4 4 4 5 6 5 4 5 6 6 6 4
25 26 26 23 21 26 29 23 18 18 19 22 20 17 18 21 23 25 22 18 20 26 27 28 26 24 22 21 20 19 19 18 17 16 17 16 14 14 14 13 13 12 11 11 11 11 11 11 11 10 10 10 10 10 10 10 10 10 10 9 10 10 10 11 11 11 11 11 10 10 10 10 9 9 8 8 7 7 6 6 6 5 4 4 4 3 3 3 4 5 5 5 5 4 4 5 5
24 22 23 27 24 27 32 25 17 16 16 18 20 19 19 21 22 24 24 20 19 25 31 31 29 26 24 22 21 21 20 19 18 18 17 16 15 15 15 14 14 13 12 12 12 11 11 11 10 10 10 10 10 9 9 9 8 9 9 9 9 10 10 10 10 9 9 9 9 9 9 9 9 9 8 8 8 7 7 6 6 5 5 4 4 3 3 3 4 5 5 5 4 3 3 3 4
21 18 16 20 22 26 30 27 22 21 19 18 19 19 18 20 21 23 24 24 21 23 31 34 31 29 26 23 22 22 21 19 19 19 18 17 17 16 16 15 14 14 13 12 12 12 11 11 10 10 9 10 10 10 9 9 9 9 10 10 10 10 10 10 9 9 8 8 9 8 8 8 8 8 8 8 8 7 7 6 6 5 5 4 4 4 3 3 4 4 5 5 4 3 2 3 2
18 19 19 19 21 24 26 25 25 26 23 20 18 18 17 18 20 20 23 25 23 22 29 36 34 32 28 24 23 22 22 21 19 19 18 18 17 17 17 16 15 14 14 13 13 13 12 11 11 10 10 10 10 11 11 11 11 11 11 11 11 10 10 10 10 9 8 8 8 8 8 7 7 7 8 7 7 7 7 7 6 6 5 5 4 4 4 4 4 4 5 4 4 3 3 2 2
16 20 23 23 22 22 22 23 25 28 26 21 20 19 17 18 20 20 20 22 24 22 27 37 36 33 30 26 24 24 23 22 20 19 19 18 18 19 18 16 15 15 15 15 14 14 13 12 11 11 10 10 11 12 12 12 12 12 12 11 11 10 10 10 10 10 9 8 8 8 8 8 8 7 7 7 7 7 7 7 6 6 5 5 5 5 5 5 5 4 4 4 3 3 3 2 2
17 23 25 23 23 21 21 23 24 26 25 21 22 20 18 21 21 20 19 20 22 21 24 36 36 33 31 27 25 25 24 23 22 20 20 19 19 20 19 17 16 16 16 16 15 14 14 13 12 12 11 11 11 12 13 12 12 12 11 11 10 10 10 10 10 10 10 9 9 8 8 8 8 7 7 7 7 6 6 6 6 6 6 5 5 5 5 5 4 4 4 3 3 2 3 2 2
21 24 23 22 24 22 21 22 22 23 23 22 23 21 20 22 21 20 20 20 22 23 24 32 37 35 32 29 28 27 26 25 23 22 20 20 20 20 20 18 17 17 16 16 15 15 15 14 13 13 12 11 11 12 13 13 13 12 12 11 10 10 10 10 10 10 10 9 9 8 8 7 7 7 7 7 6 6 6 6 6 6 6 6 5 5 4 4 4 4 4 3 3 3 3 2 2
22 22 20 20 21 21 21 22 21 20 21 23 25 23 22 21 20 21 22 21 22 25 25 28 35 38 33 31 30 27 27 26 24 24 22 21 21 21 21 20 19 18 17 16 16 16 15 15 15 14 13 13 12 12 12 13 13 13 13 12 12 11 11 10 10 10 10 9 9 8 8 7 7 7 7 6 6 6 6 6 6 6 5 5 5 4 4 4 4 4 4 3 3 3 3 3 2
21 20 20 19 18 20 23 24 23 20 20 24 24 22 22 21 21 23 22 21 21 24 25 25 31 38 35 32 32 28 28 28 26 25 24 22 21 21 22 21 20 19 17 17 16 16 16 16 16 16 15 14 13 12 12 12 12 13 13 13 13 12 12 11 11 10 10 10 9 9 8 7 7 6 6 6 5 5 5 5 5 5 5 5 5 4 4 4 4 4 4 3 3 2 2 2 2
19 18 19 19 19 20 21 22 22 19 20 24 24 22 21 21 23 23 22 22 23 24 25 23 26 35 37 34 32 30 30 30 28 26 25 23 22 21 22 22 21 20 19 18 18 17 16 17 17 17 16 15 15 14 13 12 12 12 12 12 13 12 12 11 11 10 10 10 9 9 8 8 7 6 6 5 5 5 5 4 4 4 4 4 4 4 4 4 3 3 3 3 2 2 1 1 1
15 15 17 19 19 18 16 16 18 18 20 23 24 21 19 20 23 24 23 23 24 24 24 23 24 30 37 36 33 33 33 31 30 29 26 24 23 22 23 23 23 22 21 19 19 17 17 17 17 17 17 16 15 15 14 13 12 11 12 12 11 12 11 10 10 9 9 9 9 8 8 8 7 7 7 6 6 5 5 4 4 3 3 3 3 3 3 3 3 3 2 2 2 2 2 1 1
12 13 15 18 17 16 14 14 17 20 22 22 21 19 17 18 21 23 23 22 23 24 23 24 24 27 34 38 36 34 34 33 32 31 28 26 24 23 23 24 24 23 22 21 19 19 18 18 18 18 18 17 16 16 15 14 13 12 12 11 11 11 10 10 9 9 9 8 8 8 8 7 7 7 7 7 7 6 6 5 5 4 4 4 3 3 3 3 2 2 2 2 2 2 2 2 2
15 13 14 17 17 17 16 16 18 21 23 21 18 17 18 18 18 20 22 21 22 24 23 24 26 27 29 33 38 37 33 34 34 32 30 28 26 25 25 25 25 24 23 22 21 20 20 19 18 18 18 17 17 16 15 15 14 14 12 12 12 11 10 10 9 9 9 9 8 8 7 7 7 7 7 7 7 7 7 7 6 6 5 5 5 4 4 4 3 3 3 2 3 2 2 2 3
17 16 15 17 19 21 21 21 21 21 22 20 17 17 19 18 16 17 18 19 21 23 22 23 26 30 28 26 35 41 37 34 36 34 32 31 29 27 27 26 26 25 24 24 23 22 21 21 19 19 18 18 17 16 15 15 14 14 13 13 12 12 11 11 10 10 10 10 9 8 8 8 8 8 8 8 8 8 8 8 7 7 7 6 6 6 5 5 5 5 4 4 4 4 3 3 3
19 19 17 17 19 20 21 22 21 21 20 19 17 15 17 20 18 15 14 15 17 20 23 23 25 31 32 27 29 40 42 37 36 36 34 33 32 29 29 29 28 27 26 25 24 23 22 22 20 20 20 19 18 17 16 15 15 14 14 14 13 12 12 11 11 11 11 11 10 9 9 9 9 9 9 9 9 9 9 8 8 7 7 7 7 6 6 6 6 6 6 6 6 5 4 4 4
19 21 19 20 21 18 19 20 19 21 21 18 15 14 16 19 19 18 16 14 13 13 20 27 27 28 33 34 29 34 42 40 37 38 36 34 33 31 31 31 30 29 28 27 26 24 23 22 21 21 20 19 18 18 17 16 16 15 14 14 13 13 13 13 12 12 12 12 11 10 10 10 10 10 10 10 10 10 10 10 9 8 8 7 8 8 7 7 8 7 7 7 7 7 6 6 6
13 18 19 20 20 19 20 18 16 20 23 20 15 14 16 18 19 19 18 16 15 12 12 21 29 29 29 34 33 31 37 42 40 38 38 36 34 33 33 33 32 31 31 29 27 26 25 23 23 22 21 19 18 18 17 17 17 16 16 16 15 15 15 14 14 14 14 13 12 12 11 11 11 11 11 11 11 11 11 11 10 10 10 10 9 9 9 9 9 9 9 9 9 9 8 8 8
11 14 18 19 19 20 22 20 16 17 22 22 18 18 18 17 16 18 17 16 20 21 13 9 20 30 28 29 33 31 33 43 44 40 40 38 35 35 35 35 34 33 32 30 28 28 27 25 24 23 22 21 19 18 17 17 17 17 17 18 17 17 16 16 16 16 15 15 14 14 13 13 12 12 11 11 11 11 12 12 12 12 12 12 11 11 11 11 11 11 10 10 10 9 9 9 9
Wind_Direction
23 24 55 109 114 126 118 110 107 97 88 81 82 85 92 103 98 103 113 118 123 125 125 123 120 113 106 107 111 115 114 117 124 123 123 117 115 120 123 124 123 125 126 125 124 123 121 122 123 121 122 125 121 119 121 122 122 120 118 120 126 133 144 147 140 140 137 148 153 145 164 149 145 154 169 185 179 171 172 168 170 180 173 169 164 145 132 120 119 127 132 133 126 120 117 115 109
23 21 47 125 130 138 130 115 107 94 87 84 88 90 98 105 101 111 116 113 115 121 127 121 116 109 104 110 111 110 113 120 121 120 122 118 114 116 120 121 121 124 126 122 121 123 124 123 125 125 126 128 124 125 132 132 129 126 127 126 129 141 156 159 146 143 143 154 157 157 173 152 153 173 188 195 184 180 183 177 176 184 181 177 168 148 137 128 123 130 131 132 130 124 119 118 113
22 21 38 131 141 133 131 124 116 98 88 89 95 96 106 113 118 127 123 118 120 123 125 119 113 106 105 112 114 115 120 120 118 121 126 126 121 117 117 115 115 121 122 117 116 120 119 116 118 121 127 127 124 127 130 131 129 127 135 133 139 155 160 163 156 152 148 162 179 170 174 161 167 192 205 204 196 194 191 188 182 187 187 178 169 166 152 132 126 141 131 129 129 122 119 119 117
21 24 46 125 142 131 134 131 119 106 100 101 102 105 116 122 127 131 129 126 127 126 122 112 105 109 113 112 115 119 121 123 124 128 131 125 119 118 116 112 115 121 120 116 115 118 117 114 111 114 121 121 121 122 122 127 127 127 142 143 162 180 170 178 177 172 158 170 204 194 188 184 184 201 208 202 206 208 198 192 188 198 200 183 172 186 168 138 133 144 138 133 129 123 121 122 120
21 25 58 128 141 134 145 143 116 107 108 119 114 114 125 129 129 129 128 127 126 124 116 106 99 109 117 117 124 124 122 127 128 128 129 122 117 118 117 116 119 122 122 118 117 119 119 114 109 113 117 115 118 119 122 130 130 140 171 175 188 209 215 215 193 193 179 177 212 219 214 203 192 202 205 201 211 216 214 206 208 207 201 185 175 185 168 142 133 136 150 140 129 122 121 123 123
18 22 60 140 144 138 149 154 119 106 106 124 122 125 129 127 126 121 121 124 125 120 110 108 110 110 112 119 128 130 126 128 128 125 124 123 122 124 124 124 124 125 124 122 121 119 117 112 107 111 114 114 113 117 128 135 143 166 192 191 188 202 221 225 203 201 201 195 213 228 222 210 200 205 203 208 224 226 226 216 219 202 183 178 173 168 149 136 126 132 154 138 124 119 120 123 123
15 24 72 142 149 147 141 144 132 117 112 124 126 132 132 127 122 116 117 123 124 120 113 113 115 111 112 121 127 133 133 129 126 122 119 122 125 128 130 129 128 128 125 124 123 120 120 116 111 111 112 108 105 121 145 139 160 191 204 196 186 196 211 215 197 190 203 204 212 222 213 204 201 204 202 214 231 226 222 210 199 175 163 162 164 158 134 125 118 129 149 133 121 119 120 121 120
19 31 84 136 146 145 127 130 137 124 121 132 137 139 133 127 120 115 119 125 124 120 114 114 115 115 118 126 131 137 138 130 125 121 118 120 125 127 128 127 126 125 124 122 119 116 116 118 122 130 133 133 148 176 177 156 172 200 214 206 189 193 201 202 190 190 193 193 186 188 196 200 192 187 187 179 179 184 181 178 163 148 145 144 147 139 118 116 115 126 142 130 120 119 120 119 118
29 43 94 129 135 136 119 120 130 122 127 136 132 135 132 126 119 113 119 128 124 117 111 116 121 117 118 129 137 139 140 132 125 121 117 118 122 123 122 120 120 121 120 116 114 110 107 119 133 139 143 150 170 176 173 182 186 196 215 220 202 189 183 178 186 189 182 175 156 146 146 143 143 146 144 131 124 129 128 129 136 136 136 134 134 127 115 114 116 127 136 125 119 118 118 118 119
42 54 115 136 129 134 125 116 122 126 130 130 125 130 133 127 120 116 120 131 125 120 119 125 131 120 121 133 140 140 141 134 125 120 116 116 118 118 118 116 117 119 118 116 117 116 111 118 125 131 146 148 167 170 161 175 189 168 158 193 189 168 154 156 170 171 157 153 141 130 123 120 123 125 122 118 113 112 113 114 124 130 129 128 126 118 110 111 118 129 131 122 118 117 117 119 122
52 61 120 140 126 128 125 119 125 134 133 129 129 130 134 127 124 127 128 134 127 124 124 126 128 122 126 135 140 142 142 134 124 119 116 116 118 118 117 114 115 115 116 116 117 121 121 125 124 139 153 135 148 153 137 140 145 114 113 172 155 123 135 140 145 142 127 127 130 120 118 122 123 120 116 113 110 108 111 112 117 121 124 125 119 110 107 110 121 129 127 121 118 117 118 122 125
53 74 132 148 145 132 122 126 134 141 138 132 135 133 134 132 131 136 136 136 129 124 124 125 123 124 136 140 143 148 144 134 124 120 118 119 121 120 115 111 111 114 118 113 112 119 125 126 133 161 151 122 126 131 128 130 128 119 119 139 116 115 127 120 121 124 119 122 123 119 123 126 123 120 116 112 110 110 113 116 116 114 115 114 107 105 111 118 125 128 124 121 119 119 121 125 125
54 69 163 152 149 138 123 131 144 149 144 137 141 140 138 139 138 139 142 140 132 128 123 121 120 127 139 141 147 151 145 134 125 120 120 122 123 119 111 106 108 113 117 112 116 130 135 130 139 157 133 112 122 127 129 131 130 129 131 144 138 120 118 112 114 121 124 127 126 130 135 127 123 122 118 114 112 113 116 117 114 108 103 100 98 102 112 121 127 125 121 120 120 121 124 125 124
96 49 107 133 133 139 125 127 152 154 146 150 149 148 149 148 147 143 144 142 135 132 127 125 127 131 138 144 152 151 143 132 123 119 119 123 122 117 105 102 106 110 110 103 112 131 133 132 142 145 131 120 121 121 121 126 133 138 139 145 144 127 122 120 123 130 130 127 130 135 132 124 123 121 116 115 115 116 116 113 109 107 104 101 100 104 112 121 125 123 120 119 121 123 126 126 125
144 53 35 127 129 141 140 132 159 160 155 171 164 158 162 158 152 145 144 142 138 136 131 130 132 136 142 150 157 149 141 131 122 119 120 124 120 112 102 101 108 109 106 96 100 115 112 117 128 126 128 128 118 117 119 123 130 134 140 140 134 131 129 127 127 131 129 127 131 129 122 120 122 119 117 118 117 117 113 109 110 111 111 110 112 116 121 123 123 121 119 120 123 126 127 127 127
154 84 43 136 140 158 175 154 156 167 169 182 180 171 170 163 153 143 146 144 141 139 134 134 134 137 142 154 161 151 141 130 122 121 122 123 119 110 104 109 118 112 109 105 105 109 101 102 105 103 114 117 109 114 117 119 127 130 140 137 130 132 130 129 130 130 129 129 126 119 119 122 123 122 122 119 117 116 113 112 115 117 119 122 125 127 127 124 121 118 118 121 124 125 126 126 127
155 118 63 155 190 222 180 161 162 177 182 189 188 187 170 161 149 141 153 151 146 145 137 136 140 141 147 159 160 152 143 131 123 122 122 122 118 113 114 121 127 118 112 114 111 108 104 99 100 101 106 105 101 106 110 117 133 139 139 133 127 129 127 126 127 125 122 120 119 119 122 124 125 127 123 120 119 117 116 117 121 125 127 128 129 128 126 122 118 117 118 119 121 122 123 124 125
159 155 102 170 226 222 175 178 199 183 181 190 190 192 165 163 153 139 150 155 153 151 142 141 148 148 151 156 155 155 148 133 126 124 123 123 121 118 123 127 128 120 112 113 109 103 100 97 98 100 100 100 101 105 109 117 131 135 130 128 127 127 126 125 122 118 116 117 121 123 124 125 126 125 121 120 121 120 122 125 127 127 127 127 127 125 122 119 118 118 119 119 120 122 123 124 127
180 190 292 336 215 197 210 240 215 182 179 187 193 195 170 169 157 139 147 163 157 152 149 147 151 149 147 149 152 159 152 136 128 125 123 124 124 122 124 127 123 115 107 104 101 97 96 98 99 98 96 100 105 108 114 124 129 130 126 124 126 127 126 124 121 119 120 122 125 125 125 127 125 121 120 121 122 125 128 129 127 125 124 124 123 120 119 118 119 118 119 121 123 125 126 126 129
193 207 263 324 138 168 236 255 202 180 187 195 193 192 175 174 159 148 154 166 159 153 154 150 150 147 145 148 155 160 155 139 131 127 126 125 124 124 122 120 117 110 108 104 101 99 98 101 104 101 99 101 105 108 114 124 126 124 124 123 125 131 128 123 123 123 124 126 128 129 127 127 125 124 124 125 126 128 129 127 124 122 122 120 118 117 117 117 117 117 119 121 123 125 126 125 128
200 209 234 212 186 212 220 226 200 181 194 209 199 179 171 179 164 158 160 163 158 153 157 156 154 151 148 153 158 161 157 143 135 132 129 128 128 126 123 120 119 115 115 113 109 108 106 109 110 106 104 103 99 103 111 118 119 116 118 122 127 132 127 122 123 123 126 129 130 130 129 127 127 128 128 128 129 129 126 123 120 120 119 117 117 117 115 114 114 115 118 119 120 120 120 121 123
206 217 232 202 205 234 219 202 206 193 198 211 202 164 167 186 172 165 160 162 162 157 164 169 162 155 154 161 163 163 162 149 138 136 133 133 134 129 126 125 124 123 122 120 118 117 116 120 116 109 105 102 100 101 108 114 117 115 115 119 121 121 120 119 122 124 126 128 130 131 130 130 129 130 128 128 128 128 125 122 119 118 117 115 116 117 114 112 113 114 114 114 116 117 119 121 121
213 228 237 212 208 227 226 212 210 202 196 203 200 166 170 186 176 173 168 171 170 160 165 173 166 159 159 168 171 168 166 155 143 140 140 142 141 134 128 123 123 124 123 121 122 124 125 130 126 116 110 106 108 108 107 111 117 119 119 118 116 116 118 121 124 126 128 129 131 132 131 130 130 129 127 128 130 129 125 121 118 117 117 117 117 116 115 114 115 114 114 116 118 119 120 120 119
217 229 234 219 213 223 230 230 220 209 198 195 192 178 176 177 176 182 184 185 172 161 163 169 166 162 165 173 179 176 168 160 148 144 146 149 145 135 128 125 124 124 124 124 125 131 133 135 132 125 121 116 116 115 113 114 118 120 122 123 123 123 124 127 130 131 133 134 133 132 131 130 130 129 130 132 133 129 124 118 116 118 119 119 119 118 118 119 119 118 119 119 119 119 118 117 115
224 233 233 221 221 227 230 241 232 212 204 191 183 184 183 180 185 191 193 189 173 166 166 168 168 167 170 175 185 181 170 164 153 148 152 153 146 135 130 129 128 126 126 129 129 134 137 138 137 132 126 122 120 120 119 119 120 121 125 129 130 130 131 133 134 135 135 134 133 131 130 131 132 133 135 136 133 126 120 118 117 119 120 121 123 124 123 124 122 121 121 119 119 118 117 116 114
235 236 230 221 220 228 240 251 229 201 199 192 182 189 187 183 188 192 196 188 177 174 168 170 172 170 172 175 186 184 173 169 158 152 155 154 145 136 135 133 128 128 130 133 132 135 140 141 140 134 127 124 123 123 123 123 125 127 131 134 134 133 135 135 134 134 134 133 132 132 132 135 138 138 136 133 125 120 117 116 118 120 123 126 128 129 128 126 125 123 121 120 118 116 116 116 116
236 232 229 224 216 231 261 242 201 186 196 198 187 191 190 187 190 191 199 194 184 178 171 174 174 172 175 178 184 184 177 172 162 158 158 154 146 139 139 136 128 128 135 137 134 137 143 144 140 135 129 126 125 125 125 126 128 131 135 137 136 136 135 135 134 134 134 135 135 136 138 142 143 137 130 125 118 116 114 113 118 123 127 130 132 132 131 129 128 126 124 121 118 116 116 116 116
234 230 227 225 215 230 251 193 180 185 206 207 194 195 195 198 197 189 195 199 192 182 174 176 176 174 177 179 182 183 181 174 165 164 163 156 148 144 143 140 131 130 140 142 139 142 145 146 143 138 134 130 128 127 126 127 128 131 136 137 138 138 137 136 135 136 137 138 139 139 142 142 138 130 122 120 117 115 114 114 120 126 131 134 134 136 134 132 132 130 126 122 119 118 117 116 117
236 230 223 229 226 226 212 188 192 203 211 205 198 199 201 205 204 195 196 203 199 188 179 178 179 177 177 181 181 182 184 176 170 170 168 161 153 149 148 143 135 135 144 144 143 146 148 149 146 142 138 135 132 129 128 128 129 131 134 136 138 138 138 138 136 138 139 140 141 140 140 136 129 123 120 119 119 118 117 119 123 129 135 137 138 140 138 137 136 132 129 124 119 119 120 119 121
235 236 225 225 230 229 223 217 219 220 215 209 200 201 204 204 204 200 199 205 206 196 185 182 183 180 180 183 182 182 186 182 176 174 173 168 158 152 151 146 142 144 148 148 148 151 153 153 151 146 142 139 136 134 132 131 131 131 132 134 136 137 137 138 138 139 140 140 140 139 136 132 127 123 123 123 121 119 119 122 126 133 139 142 143 143 142 141 139 136 132 128 124 125 126 125 126
234 243 230 221 228 231 230 228 227 225 221 215 206 208 211 204 203 205 202 205 208 204 196 189 186 186 184 184 185 185 187 186 182 179 178 173 163 153 149 150 151 154 154 153 155 156 156 157 156 152 147 144 142 140 138 136 134 132 133 134 135 137 138 138 140 140 141 142 141 140 137 133 131 128 128 128 125 121 123 125 128 135 141 146 147 146 144 144 143 141 137 132 131 133 131 129 130
231 238 232 231 236 232 228 224 229 231 226 222 215 214 218 212 206 202 200 203 202 203 208 198 190 192 188 183 190 189 187 190 187 185 184 176 167 155 148 152 157 160 159 158 159 159 159 160 161 158 153 151 148 146 144 142 139 137 137 138 139 141 142 142 143 143 144 146 145 143 141 139 137 135 134 134 130 127 128 128 128 134 141 146 149 147 145 146 147 145 141 138 136 137 136 133 134
226 228 228 233 237 233 230 227 231 233 229 231 228 221 222 224 218 205 199 203 200 200 209 206 196 195 189 185 195 193 187 191 191 190 187 180 174 161 152 155 162 164 162 162 161 162 163 162 163 163 159 157 155 152 151 149 147 145 143 144 145 147 147 146 147 149 151 150 150 148 145 145 143 142 141 138 136 131 130 129 125 130 139 146 147 147 146 147 151 150 148 145 139 139 139 136 137
220 223 228 231 235 234 233 233 233 234 235 237 236 229 226 230 228 217 206 204 201 199 206 211 202 198 192 187 197 198 189 190 192 194 192 185 179 171 162 160 166 168 167 167 165 165 167 166 166 166 163 161 160 159 157 155 154 151 149 148 149 151 151 152 153 155 156 154 154 153 149 148 147 147 146 143 141 134 129 127 122 125 135 144 147 148 149 152 156 157 156 152 147 147 144 142 143
217 219 224 229 234 233 231 234 230 229 235 233 229 228 228 231 230 223 215 206 203 200 202 213 207 201 197 189 196 202 191 186 191 196 198 191 184 179 173 169 169 172 173 171 169 169 169 169 169 168 166 164 164 164 162 161 159 156 154 152 152 154 155 158 158 158 161 159 156 155 152 151 152 154 154 152 146 136 128 124 119 121 127 138 148 152 155 157 161 164 166 165 160 157 152 150 147
215 216 220 222 229 234 233 235 232 228 234 233 230 232 233 235 234 231 224 212 207 202 200 210 209 203 201 192 197 204 192 189 195 198 199 197 190 184 180 178 176 175 176 173 172 173 171 171 171 169 167 166 166 167 167 166 164 161 160 158 156 157 159 161 162 161 163 162 157 157 157 157 158 160 161 158 151 140 131 127 122 120 124 134 144 150 157 160 163 167 173 176 173 164 157 155 153
211 215 218 219 225 235 235 236 238 233 233 238 236 234 236 240 239 237 234 219 210 207 202 206 209 206 205 197 197 206 199 193 199 201 200 200 195 188 186 184 182 179 177 175 174 177 176 173 173 170 167 167 166 168 170 169 168 165 164 164 161 161 163 164 165 165 166 164 161 162 162 163 164 165 166 162 156 148 138 133 129 125 125 129 135 143 153 159 165 170 172 178 182 175 166 161 160
215 220 220 218 223 232 235 237 242 236 231 245 244 234 235 242 240 239 241 222 209 208 205 206 209 207 207 201 196 204 204 194 197 204 203 202 200 195 190 186 185 182 179 177 175 177 181 178 174 173 170 168 167 167 170 171 169 168 167 167 165 164 166 167 167 167 168 168 167 167 168 168 169 170 170 166 161 156 150 144 138 134 129 127 130 135 144 156 165 171 170 173 182 184 181 174 164
220 225 226 225 225 231 239 239 242 239 232 242 249 238 236 241 242 241 243 227 210 208 207 204 204 206 206 205 200 199 202 198 197 204 206 203 203 202 193 187 186 182 180 179 177 179 184 182 179 177 175 173 171 168 168 169 168 168 167 167 166 165 167 169 169 169 170 171 171 172 173 174 174 174 174 172 169 165 160 155 151 149 140 132 135 131 136 150 161 172 173 172 175 177 196 208 180
223 226 225 231 233 232 237 240 243 244 238 239 247 244 240 240 241 240 241 235 214 206 206 203 202 207 206 204 204 199 199 203 200 202 207 204 204 206 197 187 185 183 181 179 179 182 184 185 183 181 180 180 177 172 170 169 167 166 165 164 164 164 166 170 172 172 173 175 176 176 177 178 179 179 179 178 177 175 171 167 165 166 157 149 147 138 141 150 158 168 167 175 187 181 195 221 210
227 228 225 226 234 233 229 232 241 247 246 246 247 248 244 240 240 240 240 240 219 206 206 204 203 210 210 204 204 201 199 204 203 203 206 204 205 208 201 191 187 185 182 180 180 183 185 188 187 186 185 184 184 180 173 171 168 163 161 159 159 160 164 168 172 173 173 175 177 178 180 182 182 184 185 184 184 184 183 179 176 176 168 160 153 148 155 149 150 157 161 178 192 189 188 204 209
231 235 236 232 236 239 231 227 236 248 255 253 244 245 246 240 241 243 241 240 227 213 209 207 206 209 209 204 202 202 202 202 202 204 206 204 205 208 204 196 190 187 182 179 181 183 185 189 191 189 189 186 186 186 177 172 168 160 157 156 156 159 160 163 166 167 167 169 171 173 178 183 185 188 189 188 188 188 189 187 185 183 175 167 159 160 165 150 142 147 161 177 173 176 171 160 192
234 235 242 239 239 241 235 229 235 243 251 252 243 244 246 241 244 247 244 240 233 223 214 210 206 203 203 205 203 202 203 203 202 205 206 205 205 206 206 201 193 187 183 180 181 183 184 188 190 190 189 188 187 187 180 172 167 162 159 158 159 159 157 156 154 155 158 160 161 162 170 177 181 186 188 188 189 189 189 187 187 184 176 171 164 165 166 154 150 146 158 177 170 167 151 113 145
235 233 234 241 245 243 237 231 234 240 244 246 243 242 242 242 244 250 250 240 235 237 223 210 204 200 201 206 206 203 203 203 203 204 207 207 205 206 207 203 196 189 185 184 183 183 185 185 185 186 188 190 188 187 185 177 171 170 167 166 165 161 156 153 149 149 150 150 152 154 158 163 167 173 178 181 182 183 184 181 179 177 171 171 167 164 166 161 162 157 158 174 176 165 142 115 121
230 237 239 246 253 249 239 231 232 237 240 243 246 244 242 243 245 250 255 242 236 246 228 209 205 205 204 205 206 205 205 204 203 205 209 208 206 207 206 203 198 192 188 187 187 185 185 183 181 181 186 189 189 188 186 183 179 178 176 172 169 162 155 153 149 147 146 145 147 148 148 149 151 154 158 162 164 169 174 171 168 168 164 167 168 167 170 169 167 165 160 165 172 160 141 136 121
234 241 245 248 253 250 238 232 233 233 235 240 246 246 243 247 251 252 256 247 241 245 221 205 205 207 206 205 206 206 206 206 204 205 209 209 209 209 206 202 199 196 192 190 190 188 186 184 182 180 183 189 191 188 186 186 186 185 181 177 172 166 160 156 153 150 149 148 145 142 141 139 138 139 139 142 146 150 156 159 159 162 163 165 171 171 169 168 166 160 152 152 156 154 146 140 127
243 248 251 250 253 252 238 232 237 236 233 237 242 244 244 247 253 254 256 254 245 240 224 211 208 208 207 206 207 207 207 208 206 204 207 208 209 211 207 203 201 199 196 193 193 192 189 187 185 181 182 188 191 188 187 187 188 187 184 180 176 174 170 165 161 157 155 153 149 145 142 139 135 135 133 134 137 139 143 149 153 156 158 161 165 166 163 166 169 157 145 143 137 133 135 130 125
249 252 253 251 252 253 242 233 240 241 236 239 241 244 247 246 247 251 256 259 250 242 237 226 213 207 207 208 208 208 208 210 208 206 207 206 207 210 209 204 202 202 200 197 196 196 194 191 188 184 184 188 191 190 188 188 189 188 185 183 179 178 180 175 169 167 166 163 160 157 154 151 148 145 141 140 139 140 140 141 144 147 150 154 157 159 159 162 162 148 140 135 128 126 127 126 128
252 252 248 246 243 243 241 236 240 242 236 239 242 244 247 245 246 251 257 262 260 250 246 240 219 207 206 207 206 207 211 212 210 208 207 205 204 209 211 207 203 204 202 200 202 200 198 196 193 190 188 189 191 191 191 191 190 189 186 185 182 181 184 183 180 176 175 175 172 169 169 168 166 160 156 157 154 151 149 144 144 144 146 150 153 154 156 152 149 143 139 134 129 132 133 135 143
245 248 245 239 234 238 242 239 238 241 240 242 245 248 246 242 246 251 253 258 262 258 251 246 226 208 205 207 206 206 212 213 212 211 208 205 204 207 211 208 204 205 203 202 205 205 202 200 198 196 193 193 194 194 194 193 191 191 189 188 186 184 186 187 186 184 183 185 181 179 182 182 182 181 179 182 180 173 169 163 159 156 154 157 158 157 159 158 157 154 149 150 152 155 157 168 185
239 239 242 234 228 232 240 241 238 236 239 241 242 245 243 238 243 248 249 252 258 260 255 247 234 214 208 209 206 206 212 213 212 211 209 205 203 204 209 208 205 205 205 204 205 206 205 204 202 201 199 198 197 197 196 195 193 193 194 193 190 188 189 190 190 190 190 191 190 189 191 193 195 197 198 201 201 196 193 192 190 188 184 183 181 180 179 176 175 172 172 176 179 184 199 224 252
242 235 239 235 231 233 235 244 244 232 228 234 236 237 238 237 240 244 246 249 254 259 256 245 237 225 216 211 208 206 210 212 212 210 207 205 204 203 206 208 206 205 206 207 207 206 207 207 206 205 205 204 202 201 199 198 196 197 199 199 198 195 192 193 193 192 193 194 196 196 198 200 202 204 209 213 215 213 212 214 217 218 218 218 218 217 216 214 205 201 203 206 211 215 227 250 270
240 236 234 228 227 233 233 236 239 228 224 234 239 233 236 242 240 239 243 247 252 256 256 247 238 233 227 218 212 210 210 211 211 210 207 205 205 204 205 207 206 204 206 208 210 208 208 210 209 208 209 208 207 205 202 202 200 201 203 204 206 205 200 200 200 198 198 199 200 201 202 205 208 210 215 220 224 224 223 224 227 230 232 232 235 238 241 242 239 233 233 232 235 242 247 259 274
241 240 236 230 228 232 232 231 234 231 227 235 238 228 231 240 240 239 242 243 243 244 247 247 241 236 236 227 215 212 212 212 210 210 208 206 205 203 204 207 206 204 205 208 211 211 210 211 211 210 211 210 210 209 206 206 205 205 207 208 210 211 209 208 209 207 208 207 206 207 208 210 214 218 222 226 230 232 231 230 229 231 236 239 241 244 248 252 254 256 258 261 259 258 258 261 270
243 243 242 237 233 232 230 230 236 235 233 237 236 230 233 240 241 237 232 236 241 240 238 240 241 238 237 235 224 215 213 212 210 209 210 209 206 203 204 207 207 206 206 208 211 212 211 212 212 212 212 210 210 212 211 210 208 209 212 213 212 215 216 215 216 215 215 215 214 215 216 217 220 224 228 231 234 237 238 238 237 236 239 243 246 249 252 257 261 264 268 272 272 272 271 269 271
245 245 247 241 235 234 228 229 234 230 229 236 231 223 231 238 240 235 229 234 245 244 237 232 231 236 237 238 237 225 215 213 211 209 210 211 208 204 205 207 207 207 207 208 211 213 214 212 212 215 214 211 210 212 214 214 213 212 214 216 216 219 221 221 222 222 222 221 219 219 222 223 224 226 228 230 234 238 241 242 244 246 247 250 252 253 255 258 262 266 269 270 272 274 275 275 276
246 236 241 241 236 234 229 233 238 225 223 232 230 222 230 238 238 236 233 234 230 224 230 229 223 226 235 238 241 236 221 214 213 211 210 210 208 206 207 207 208 208 208 209 210 213 215 214 214 216 216 214 212 213 214 217 218 217 216 217 218 220 222 223 225 226 227 227 226 224 226 227 229 230 229 230 233 236 239 240 242 245 247 250 253 256 256 257 260 264 267 269 271 274 277 277 278
264 238 235 237 236 235 235 242 246 227 222 231 235 231 231 236 239 235 231 232 226 218 219 234 223 220 226 234 238 241 229 215 213 213 212 211 208 207 209 210 210 210 209 209 211 213 216 216 216 218 219 218 217 217 218 220 223 224 222 221 220 221 223 225 226 227 229 230 230 229 230 231 232 233 233 234 236 238 240 240 240 242 245 249 254 259 261 261 262 264 265 268 271 275 278 278 279